Weather History for Altus, OK

Change the Weather History Date:

Saturday, December 21, 2013

  Actual Average (KLTS) Record (KLTS)
Temperature  
Mean Temperature 32 °F -  
Max Temperature 33 °F 48 °F 66 °F (2007)
Min Temperature 30 °F 25 °F 12 °F (1998)
Degree Days  
Heating Degree Days 34    
Moisture  
Dew Point 30 °F    
Average Humidity 91    
Maximum Humidity 96    
Minimum Humidity 82    
Precipitation  
Precipitation 0.23 in - - ()
Sea Level Pressure  
Sea Level Pressure 29.71 in    
Wind  
Wind Speed 1 mph (NNE)    
Max Wind Speed 5 mph    
Max Gust Speed -    
Visibility 1 miles    
Events Snow    
Averages and records for this station are not official NWS values.
T = Trace of Precipitation, MM = Missing Value Source: NWS Daily Summary

Daily Weather History Graph

Daily Weather History Graph

Search for Another Location

Airport:

Trip Planner

Search our weather history database for the weather conditions in past years. The results will help you decide how hot, cold, wet, or windy it might be!

Date:

Astronomy

Dec. 21, 2013 Rise Set
Actual Time 7:40 AM CST 5:30 PM CST
Civil Twilight 7:12 AM CST 5:58 PM CST
Nautical Twilight 6:41 AM CST 6:30 PM CST
Astronomical Twilight 6:10 AM CST 7:00 PM CST
Moon 9:39 PM CST (12/21) 10:16 AM CST (12/21)
Length of Visible Light 10h 45m
Length of Day
9h 49m
Waning Gibbous, 84% of the Moon is Illuminated
Dec 21
Waning Gibbous
Dec 25
Last Quarter
Jan 1
New
Jan 7
First Quarter
Jan 15
Full

Hourly Weather History & Observations

Time (CST) Temp. Windchill Dew Point Humidity Pressure Visibility Wind Dir Wind Speed Gust Speed Precip Events Conditions
12:20 AM 32.4 °F 29.1 °F 30.2 °F 92% 29.83 in 1.2 mi North 3.5 mph - 0.03 in Snow Light Snow
12:35 AM 32.4 °F - 30.2 °F 92% 29.82 in 0.8 mi Calm Calm - 0.07 in Snow Light Snow
12:55 AM 32.4 °F - 30.2 °F 92% 29.79 in 0.8 mi Calm Calm - 0.10 in Snow Light Snow
1:20 AM 32.5 °F - 30.2 °F 91% 29.82 in 0.8 mi Calm Calm - 0.01 in   Overcast
1:35 AM 32.5 °F - 30.2 °F 91% 29.79 in 1.0 mi Calm Calm - 0.02 in   Overcast
1:55 AM 32.7 °F - 30.4 °F 91% 29.82 in 1.0 mi Calm Calm - 0.03 in   Overcast
1:56 AM 33.8 °F - 30.2 °F 87% 29.81 in 1.0 mi Calm Calm - 0.03 in   Overcast
2:20 AM 32.9 °F - 30.9 °F 92% 29.77 in 1.0 mi Calm Calm - 0.01 in   Overcast
2:35 AM 32.9 °F - 30.7 °F 92% 29.78 in 1.0 mi Calm Calm - 0.01 in   Overcast
2:55 AM 32.9 °F 29.8 °F 30.2 °F 90% 29.77 in 1.0 mi ENE 3.5 mph - 0.02 in   Overcast
3:20 AM 32.7 °F 29.6 °F 30.6 °F 92% 29.75 in 1.0 mi East 3.5 mph - N/A   Overcast
3:35 AM 32.5 °F 28.1 °F 30.2 °F 91% 29.76 in 1.2 mi ENE 4.6 mph - 0.01 in   Overcast
3:55 AM 32.5 °F 29.3 °F 30.6 °F 92% 29.75 in 1.2 mi NE 3.5 mph - 0.01 in   Overcast
4:15 AM 32.5 °F 29.3 °F 30.2 °F 91% 29.73 in 1.2 mi NNE 3.5 mph - N/A   Overcast
4:35 AM 32.4 °F 27.9 °F 30.2 °F 92% 29.71 in 1.0 mi NE 4.6 mph - 0.01 in   Overcast
4:55 AM 32.4 °F 27.9 °F 30.0 °F 91% 29.71 in 1.0 mi NNE 4.6 mph - 0.01 in   Overcast
5:15 AM 32.5 °F 29.3 °F 30.2 °F 91% 29.72 in 0.8 mi NNE 3.5 mph - 0.01 in Snow Light Snow
5:35 AM 32.5 °F 29.3 °F 30.7 °F 93% 29.67 in 1.0 mi ENE 3.5 mph - 0.01 in   Overcast
5:55 AM 32.2 °F - 30.2 °F 92% 29.71 in 1.0 mi Calm Calm - 0.01 in   Overcast
6:15 AM 32.2 °F 28.9 °F 30.0 °F 92% 29.70 in 1.0 mi North 3.5 mph - N/A   Overcast
6:35 AM 32.2 °F 28.9 °F 30.0 °F 92% 29.66 in 1.0 mi NNE 3.5 mph - N/A   Overcast
6:55 AM 32.4 °F 29.1 °F 30.2 °F 92% 29.68 in 1.0 mi NNE 3.5 mph - N/A   Overcast
7:15 AM 32.5 °F - 30.6 °F 92% 29.67 in 0.8 mi Calm Calm - 0.01 in   Overcast
7:35 AM 32.4 °F 29.1 °F 30.7 °F 94% 29.68 in 1.0 mi NE 3.5 mph - 0.01 in   Overcast
7:55 AM 32.2 °F 28.9 °F 30.2 °F 92% 29.65 in 0.8 mi NE 3.5 mph - 0.02 in   Overcast
8:15 AM 32.0 °F - 30.2 °F 93% 29.69 in 1.0 mi Calm Calm - N/A   Overcast
8:35 AM 32.0 °F - 30.2 °F 93% 29.69 in 1.0 mi Calm Calm - N/A   Overcast
8:55 AM 32.2 °F - 30.4 °F 93% 29.69 in 0.8 mi Calm Calm - 0.01 in   Overcast
9:15 AM 32.0 °F - 30.2 °F 93% 29.70 in 1.0 mi Calm Calm - 0.01 in   Overcast
9:35 AM 32.2 °F - 30.6 °F 94% 29.67 in 0.8 mi Calm Calm - 0.01 in   Overcast
9:55 AM 32.2 °F - 30.4 °F 93% 29.68 in 0.8 mi Calm Calm - 0.01 in   Overcast
10:15 AM 32.2 °F - 30.2 °F 92% 29.70 in 0.8 mi Calm Calm - N/A   Overcast
10:35 AM 32.4 °F 29.1 °F 30.7 °F 94% 29.65 in 0.8 mi NE 3.5 mph - 0.01 in   Overcast
10:55 AM 32.2 °F - 30.6 °F 94% 29.68 in 0.8 mi Calm Calm - 0.01 in Snow Light Snow
11:15 AM 32.5 °F - 30.7 °F 93% 29.66 in 0.8 mi Calm Calm - N/A   Overcast
11:35 AM 32.5 °F - 30.7 °F 93% 29.65 in 0.8 mi Calm Calm - N/A   Overcast
11:55 AM 32.4 °F - 30.6 °F 93% 29.64 in 0.8 mi Calm Calm - N/A   Overcast
12:15 PM 32.2 °F - 30.6 °F 94% 29.64 in 0.8 mi Calm Calm - N/A   Overcast
12:35 PM 32.4 °F - 30.9 °F 94% 29.62 in 0.8 mi Calm Calm - N/A   Overcast
1:00 PM 32.2 °F - 30.6 °F 94% 29.63 in 0.8 mi Calm Calm - N/A   Overcast
1:15 PM 32.0 °F - 30.4 °F 94% 29.63 in 0.8 mi Calm Calm - N/A   Overcast
1:35 PM 32.2 °F - 31.1 °F 96% 29.62 in 0.8 mi Calm Calm - N/A   Overcast
1:55 PM 32.4 °F - 31.1 °F 95% 29.60 in 0.8 mi Calm Calm - N/A   Overcast
2:15 PM 32.5 °F - 31.1 °F 94% 29.62 in 1.0 mi Calm Calm - N/A   Overcast
2:35 PM 32.5 °F - 30.9 °F 94% 29.62 in 0.8 mi Calm Calm - N/A   Overcast
2:55 PM 32.9 °F - 31.1 °F 93% 29.62 in 0.8 mi Calm Calm - N/A   Overcast
3:15 PM 32.9 °F - 31.1 °F 93% 29.61 in 0.8 mi Calm Calm - N/A Snow Light Snow
3:35 PM 32.9 °F - 31.5 °F 94% 29.62 in 0.8 mi Calm Calm - N/A   Overcast
3:55 PM 32.9 °F - 31.5 °F 94% 29.63 in 1.0 mi Calm Calm - N/A   Overcast
4:15 PM 32.9 °F - 31.1 °F 93% 29.63 in 1.0 mi Calm Calm - N/A   Overcast
4:35 PM 33.1 °F - 30.9 °F 92% 29.64 in 1.0 mi Calm Calm - N/A   Overcast
4:55 PM 32.5 °F - 30.6 °F 92% 29.65 in 1.0 mi Calm Calm - N/A   Overcast
5:15 PM 32.5 °F - 30.2 °F 91% 29.66 in 1.0 mi Calm Calm - N/A   Overcast
5:35 PM 32.4 °F 29.1 °F 30.0 °F 91% 29.66 in 1.0 mi North 3.5 mph - N/A   Overcast
5:55 PM 32.4 °F - 29.5 °F 89% 29.67 in 1.0 mi Calm Calm - N/A   Overcast
6:15 PM 32.2 °F - 29.3 °F 89% 29.68 in 1.2 mi Calm Calm - N/A   Overcast
6:35 PM 32.0 °F - 29.1 °F 89% 29.69 in 1.2 mi Calm Calm - N/A   Overcast
6:55 PM 32.0 °F - 28.4 °F 87% 29.70 in 1.2 mi Calm Calm - N/A   Overcast
7:15 PM 32.0 °F - 28.0 °F 85% 29.70 in 1.2 mi Calm Calm - N/A   Overcast
7:35 PM 32.0 °F - 28.2 °F 86% 29.71 in 1.2 mi Calm Calm - N/A   Overcast
7:55 PM 32.0 °F - 28.4 °F 87% 29.73 in 1.2 mi Calm Calm - N/A   Overcast
8:15 PM 32.0 °F - 28.0 °F 85% 29.75 in 1.2 mi Calm Calm - N/A   Overcast
8:35 PM 32.0 °F - 28.4 °F 87% 29.76 in 1.5 mi Calm Calm - N/A   Overcast
8:55 PM 32.0 °F - 28.6 °F 87% 29.78 in 1.5 mi Calm Calm - N/A   Mostly Cloudy
9:15 PM 32.0 °F 28.7 °F 28.6 °F 87% 29.80 in 1.5 mi NW 3.5 mph - N/A   Overcast
9:35 PM 32.0 °F 28.7 °F 27.9 °F 85% 29.82 in 1.5 mi NNW 3.5 mph - N/A   Overcast
9:55 PM 32.0 °F 28.7 °F 27.9 °F 85% 29.82 in 1.5 mi NNW 3.5 mph - N/A   Overcast
10:15 PM 31.8 °F 28.5 °F 27.3 °F 83% 29.82 in 1.5 mi NNW 3.5 mph - N/A   Haze
10:35 PM 31.6 °F 28.3 °F 27.5 °F 85% 29.81 in 1.5 mi NNW 3.5 mph - N/A   Overcast
10:55 PM 31.1 °F 27.7 °F 26.1 °F 82% 29.86 in 1.5 mi NNW 3.5 mph - N/A   Haze
11:15 PM 30.9 °F 27.5 °F 26.1 °F 82% 29.86 in 1.5 mi NNW 3.5 mph - N/A   Haze
11:35 PM 30.7 °F - 25.7 °F 82% 29.87 in 1.5 mi Calm Calm - N/A   Haze
11:55 PM 30.4 °F 25.6 °F 25.5 °F 82% 29.86 in 1.5 mi NNW 4.6 mph - N/A   Haze